JTSTEC Weather Reports


time (UTC)temp
C
wind
direction
speed
KPH
gust
KPH
rain 1hr
cm
rain 24hr
cm
rain mn
cm
humidity
%
barometer
mb
20260504081525 2 94 0.0 0.0 0.00 0.00 0.00 73 1009.7
20260504050010 3 94 0.0 1.6 0.00 0.00 0.00 65 1010.0
20260504044518 3 93 0.0 1.6 0.00 0.00 0.00 65 1010.1
20260504043020 3 93 0.0 1.6 0.00 0.00 0.00 65 1010.3
20260504041524 3 93 0.0 0.0 0.00 0.00 0.00 64 1010.2
20260504040028 4 93 0.0 1.6 0.00 0.00 0.00 62 1010.1
20260504034512 4 92 0.0 1.6 0.00 0.00 0.00 62 1010.1
20260504033019 4 92 0.0 1.6 0.00 0.00 0.00 60 1010.0
20260504031521 5 92 0.0 1.6 0.00 0.00 0.00 58 1009.9
20260504030031 5 92 0.0 0.0 0.00 0.00 0.00 58 1009.6
20260504024525 5 92 0.0 0.0 0.00 0.00 0.00 56 1009.7
20260504023013 5 249 0.0 1.6 0.00 0.00 0.00 55 1009.9
20260504021516 6 274 0.0 3.2 0.00 0.00 0.00 53 1009.8
20260504020034 6 252 0.0 4.8 0.00 0.00 0.00 52 1009.7
20260504014526 6 288 0.0 6.4 0.00 0.00 0.00 51 1009.5
20260504013034 6 316 0.0 3.2 0.00 0.00 0.00 50 1009.4
20260504011512 6 215 0.0 4.8 0.00 0.00 0.00 48 1009.4
20260504010022 7 64 0.0 6.4 0.00 0.00 0.00 45 1009.1
20260504004536 7 117 0.0 14.5 0.00 0.00 0.00 42 1008.9
20260504003025 6 250 1.6 8.0 0.00 0.00 0.00 42 1008.6
20260504001534 7 227 0.0 1.6 0.00 0.00 0.00 42 1008.2
20260504000016 7 266 0.0 8.0 0.00 0.00 0.00 38 1008.2
20260503234524 8 223 0.0 9.7 0.00 0.00 0.00 37 1008.1
20260503233026 8 304 1.6 17.7 0.00 0.00 0.00 37 1008.2
20260503231528 8 297 4.8 16.1 0.00 0.00 0.00 34 1007.9
20260503230030 9 288 4.8 20.9 0.00 0.00 0.00 35 1007.7
20260503224518 10 268 6.4 20.9 0.00 0.00 0.00 33 1007.7
20260503223008 10 76 1.6 8.0 0.00 0.00 0.00 39 1007.8
20260503221503 10 284 1.6 8.0 0.00 0.00 0.00 36 1007.7
20260503220021 10 297 3.2 22.5 0.00 0.00 0.00 36 1007.8
20260503214528 10 264 9.7 19.3 0.00 0.00 0.00 37 1007.7
20260503213029 10 250 8.0 16.1 0.00 0.00 0.00 38 1007.6
20260503211503 10 229 3.2 19.3 0.00 0.00 0.00 40 1007.5
20260503210015 9 289 6.4 17.7 0.00 0.00 0.00 38 1007.7
20260503204523 10 318 3.2 20.9 0.00 0.00 0.00 40 1007.7
20260503203015 10 273 3.2 16.1 0.00 0.00 0.00 47 1007.7
20260503201522 10 102 4.8 17.7 0.00 0.00 0.00 41 1007.7
20260503200026 8 117 3.2 11.3 0.00 0.00 0.00 45 1007.7
20260503194507 8 320 1.6 16.1 0.00 0.00 0.00 45 1007.6
20260503193011 8 295 4.8 9.7 0.00 0.00 0.00 48 1007.8
20260503191518 8 143 3.2 12.9 0.00 0.00 0.00 44 1007.7
20260503190031 10 283 4.8 14.5 0.00 0.00 0.00 48 1007.6
20260503184526 8 236 6.4 19.3 0.00 0.00 0.00 44 1007.5
20260503183011 8 281 8.0 19.3 0.00 0.00 0.00 41 1007.6
20260503181531 8 322 3.2 11.3 0.00 0.00 0.00 48 1007.6
20260503180032 7 142 3.2 19.3 0.00 0.00 0.00 47 1007.6
20260503174522 7 295 9.7 17.7 0.00 0.00 0.00 45 1007.7
20260503173026 7 21 4.8 9.7 0.00 0.00 0.00 49 1007.8
20260503171521 7 295 4.8 17.7 0.00 0.00 0.00 50 1007.7